Location: Holmes Observatory
(37.1039°N, 122.0513°W)
Time: 09:23:12
(UTC-07:00)

Daily predictions for brighter satellites

Satellite Brightness Start Highest point End
(mag) Time Altitude Azimuth Time Altitude Azimuth Time Altitude Azimuth
Cosmos 1892 Rocket 4.4 20:45:35 10° SSW 20:49:58 58° W 20:54:23 10° N
Cosmos 2034 Rocket 4.3 20:43:54 10° N 20:50:05 51° E 20:56:11 10° SSE
APEX 4.0 20:46:00 10° NNW 20:50:26 87° WSW 20:56:15 10° SSE
Cosmos 1943 4.0 20:47:35 10° SSE 20:52:22 29° ESE 20:57:12 10° NE
Cosmos 1939 Rocket 4.2 20:50:28 10° SE 20:53:51 25° ENE 20:57:14 10° NNE
Meteor 2-4 Rocket 4.1 20:49:07 10° SSW 20:54:58 76° W 21:00:57 10° N
H-2A R/B 2.8 20:51:53 10° SSE 20:55:50 86° ENE 20:59:49 10° N
Resurs 01 Rocket 4.3 20:59:50 10° SW 21:02:51 18° W 21:05:54 10° NW
SeaSat 1 3.8 21:15:27 11° ESE 21:19:15 25° NE 21:23:14 10° N
ISS -1.1 21:16:45 10° W 21:19:38 29° NNW 21:22:32 10° NNE
USA 186 3.5 21:19:32 10° SSW 21:21:53 25° W 21:24:08 10° NW
COSMOS 2455 3.0 21:17:40 10° SSW 21:23:40 79° WNW 21:29:42 10° NNE
ALOS 3.4 21:19:36 10° S 21:24:02 43° W 21:28:28 10° NNW
Cosmos 1666 3.8 21:23:54 10° NNW 21:27:38 44° W 21:31:20 10° SSW
Centaur D AC-28 3.4 21:26:40 10° WSW 21:29:15 16° SSW 21:31:03 13° SSE
Cosmos 1602 Rocket 4.3 21:27:07 10° SSW 21:31:31 57° W 21:35:56 10° N
CZ-2C R/B 2.2 21:32:58 10° SSW 21:35:01 28° W 21:37:03 10° NW
Cosmos 1825 Rocket 3.9 21:31:36 13° SSE 21:35:15 45° E 21:39:28 10° NNE
CZ-4B R/B 4.1 21:31:17 10° NNE 21:36:03 37° E 21:39:52 15° SSE
Cosmos 2369 Rocket 2.6 21:31:52 10° N 21:37:20 48° ENE 21:41:02 20° SE
Cosmos 1190 Rocket 4.1 21:32:28 10° S 21:37:38 58° ESE 21:42:51 10° NNE
YAOGAN 6 3.9 21:40:59 21° ESE 21:42:22 27° ENE 21:45:35 10° NNE
Cosmos 1812 Rocket 3.7 21:40:29 10° N 21:44:52 74° W 21:48:48 13° S
H-2A R/B 3.9 21:45:29 11° E 21:47:32 14° ENE 21:50:05 10° NNE
CZ-4 SHROUD 3.1 21:46:21 28° SSE 21:47:50 76° ENE 21:51:00 10° N
SPOT 5 2.5 21:50:53 22° SSE 21:53:41 81° ENE 21:58:00 10° N
PSLV R/B 3.0 21:52:31 33° SSE 21:53:46 88° E 21:56:53 10° N
ATLAS 3B R/B 2.9 21:46:14 10° SSW 21:53:57 87° ESE 22:01:34 10° NNE
Lacrosse 4 Rocket 1.3 21:50:35 10° SSW 21:54:36 87° WNW 21:58:43 10° NNE
H-2A R/B 3.0 21:50:38 10° S 21:54:39 44° W 21:58:51 10° NNW
Cosmos 676 Rocket 4.3 21:50:52 15° S 21:54:59 48° ESE 22:00:06 10° NNE
Terra 3.8 21:53:35 12° E 21:55:07 14° ENE 21:57:35 10° NNE
SPOT 1/Viking Rocket 4.0 21:53:34 25° SE 21:56:13 45° ENE 22:01:07 10° N
Cosmos 1515 4.2 21:53:35 10° SSW 21:57:23 61° W 22:01:13 10° N
DEBRIS 2.6 21:54:10 10° WNW 21:57:58 44° SW 21:58:28 38° S
UNK 4.2 21:56:58 10° NNE 22:02:32 85° ESE 22:08:22 10° SSW
ERS-1 Rocket 4.3 21:58:07 10° SSW 22:02:40 35° W 22:07:16 10° NNW
GEOS 3 Rocket 4.5 22:04:53 19° S 22:08:21 43° WSW 22:13:20 10° NW
Cosmos 2263 4.3 22:05:14 10° NNW 22:10:50 66° ENE 22:13:27 32° SE
USA 234 4.0 22:09:10 18° E 22:13:48 44° NE 22:19:58 10° NW
CZ-4C R/B 4.3 22:14:31 31° E 22:15:12 34° ENE 22:18:51 10° N
USA 245 4.1 22:13:45 30° SSE 22:16:42 74° ENE 22:21:40 10° N
COSMOS 2406 3.7 22:15:41 33° SE 22:17:04 38° ESE 22:22:18 10° NE
SL-27 R/B 3.3 22:18:58 34° ENE 22:18:58 34° ENE 22:21:19 10° NNE
Envisat 3.7 22:14:39 17° SSW 22:18:20 48° W 22:23:16 10° NNW
MetOp-A 4.2 22:15:19 26° S 22:18:25 77° WSW 22:23:47 10° NNW
Cosmos 407 Rocket 3.8 22:17:07 10° SSW 22:22:21 68° WNW 22:27:34 10° NNE
Cosmos 1953 Rocket 3.8 22:20:36 23° SSW 22:23:19 68° W 22:27:46 10° N
Atlas Centaur 2 3.1 22:17:54 10° WSW 22:24:57 51° S 22:28:40 31° SE
Cosmos-2242 3.6 22:23:52 10° N 22:28:04 41° E 22:28:28 40° E
Cosmos 1943 Rocket 2.5 22:24:50 10° NNW 22:30:15 51° ENE 22:31:58 38° ESE
Meteor 1-22 Rocket 4.3 22:25:51 10° NNW 22:31:32 78° W 22:34:24 32° S
Cosmos 1953 3.2 22:28:35 10° NNE 22:32:04 35° ENE 22:32:04 35° ENE
Cosmos 1634 Rocket 4.3 22:26:45 10° NNW 22:32:51 64° W 22:36:42 23° SSW
SL-08 RB Rocket 3.6 22:35:39 55° SE 22:36:34 75° ENE 22:41:06 10° N
USA 238 DEB 3.6 22:32:12 10° SSW 22:39:16 76° ESE 22:46:20 10° NE
USA 238 3.6 22:32:18 10° SSW 22:39:22 75° ESE 22:46:26 10° NE
Cosmos 1346 Rocket 4.2 22:38:07 18° SW 22:40:31 35° WNW 22:44:10 10° N
Cosmos 1954 Rocket 4.1 22:40:07 24° SSW 22:43:23 78° WNW 22:48:41 10° NNE
Cosmos 1842 3.2 22:46:00 74° SW 22:46:16 79° W 22:50:11 10° N
Cosmos 1607 3.9 22:45:38 36° S 22:48:15 65° ESE 22:54:24 10° NE
Cosmos 2279 Rocket 4.0 22:46:15 10° N 22:52:30 78° W 22:54:56 40° S
Cosmos 2208 Rocket 4.3 22:50:54 10° N 22:55:56 50° ENE 22:56:31 47° E
SeaSat 1 3.3 22:55:15 34° SW 22:56:32 40° WSW 23:01:11 10° NW
CARTOSAT-1 3.6 22:59:20 66° ENE 22:59:20 66° ENE 23:03:32 10° N
CZ-4C R/B 3.3 23:02:16 27° ENE 23:02:16 27° ENE 23:05:37 10° NE
ARGOS 3.6 22:59:51 39° SSW 23:01:33 54° W 23:06:52 10° NNW
Cosmos 1741 Rocket 3.9 23:06:01 68° S 23:06:42 82° ESE 23:12:02 10° NNE
Geosat 4.1 23:07:18 10° NNE 23:12:19 73° WNW 23:13:49 46° SW
NOSS 3-2 (C) 4.1 23:14:45 38° E 23:14:45 38° E 23:19:42 10° NE
Landsat 7 4.1 23:16:10 55° WSW 23:16:31 57° W 23:21:12 10° NNW
Cosmos 1758 4.0 23:16:18 10° NNW 23:19:54 53° WNW 23:19:54 53° WNW
Cosmos 2369 Rocket 4.0 23:16:52 10° NW 23:20:56 21° W 23:22:51 17° SW
Cosmos 1850 Rocket 4.2 23:21:45 54° SW 23:22:46 68° WNW 23:27:58 10° NNE
IGS 5A 3.9 23:25:39 58° NW 23:25:39 58° NW 23:29:08 10° NNW
Cosmos 1340 4.3 23:27:27 30° NNE 23:27:27 30° NNE 23:29:29 10° NNE
H-2A R/B 2.1 23:26:07 63° WSW 23:26:20 63° W 23:31:22 10° NNW
Cosmos 1570 Rocket 4.0 23:23:32 10° NNW 23:28:54 74° WSW 23:29:04 73° SW
Cosmos 1140 Rocket 4.4 23:27:12 30° WSW 23:29:16 45° WNW 23:34:17 10° N
Spot 4 3.9 23:30:13 74° WNW 23:30:13 74° WNW 23:34:47 10° NNW
Cosmos 1842 Rocket 3.9 23:25:56 10° N 23:29:43 62° NW 23:29:43 62° NW
Meteor 2-5 Rocket 3.7 23:31:04 69° ESE 23:31:11 69° E 23:36:56 10° NNE
Terra 2.2 23:32:28 57° W 23:32:28 57° W 23:37:02 10° NNW
Cosmos 1470 4.1 23:36:22 10° N 23:38:47 36° N 23:38:47 36° N
Meteor 1-16 Rocket 4.5 23:43:48 10° N 23:49:15 59° ENE 23:49:15 59° ENE
Lacrosse 5 4.5 23:48:33 10° N 23:51:20 15° NNE 23:54:06 10° ENE
